| time (UTC) | temp F | wind direction | speed MPH | gust MPH | rain 1hr in | rain 24hr in | rain mn in | humidity % | barometer mb |
| 20260504081529 | 51 | 261 | 7.0 | 10.0 | 0.00 | 0.00 | 0.00 | 71 | 1017.5 |
| 20260504044529 | 55 | 249 | 7.0 | 11.0 | 0.00 | 0.00 | 0.00 | 61 | 1017.8 |
| 20260504043033 | 55 | 248 | 7.0 | 11.0 | 0.00 | 0.00 | 0.00 | 60 | 1017.8 |
| 20260504041532 | 55 | 262 | 8.0 | 11.0 | 0.00 | 0.00 | 0.00 | 60 | 1018.1 |
| 20260504040028 | 55 | 244 | 7.0 | 11.0 | 0.00 | 0.00 | 0.00 | 60 | 1018.0 |
| 20260504034530 | 56 | 250 | 6.0 | 11.0 | 0.00 | 0.00 | 0.00 | 59 | 1018.1 |
| 20260504033031 | 56 | 261 | 7.0 | 10.0 | 0.00 | 0.00 | 0.00 | 57 | 1018.1 |
| 20260504031528 | 57 | 263 | 7.0 | 10.0 | 0.00 | 0.00 | 0.00 | 55 | 1018.0 |
| 20260504030036 | 58 | 265 | 7.0 | 10.0 | 0.00 | 0.00 | 0.00 | 54 | 1018.0 |
| 20260504024530 | 58 | 273 | 7.0 | 12.0 | 0.00 | 0.00 | 0.00 | 53 | 1017.8 |
| 20260504023029 | 59 | 271 | 8.0 | 12.0 | 0.00 | 0.00 | 0.00 | 52 | 1017.7 |
| 20260504021535 | 60 | 249 | 7.0 | 13.0 | 0.00 | 0.00 | 0.00 | 51 | 1017.6 |
| 20260504020035 | 60 | 258 | 8.0 | 13.0 | 0.00 | 0.00 | 0.00 | 50 | 1017.5 |
| 20260504014530 | 60 | 261 | 8.0 | 15.0 | 0.00 | 0.00 | 0.00 | 50 | 1017.0 |
| 20260504013034 | 61 | 246 | 7.0 | 13.0 | 0.00 | 0.00 | 0.00 | 49 | 1016.9 |
| 20260504011533 | 61 | 256 | 6.0 | 12.0 | 0.00 | 0.00 | 0.00 | 49 | 1016.7 |
| 20260504010030 | 62 | 227 | 7.0 | 12.0 | 0.00 | 0.00 | 0.00 | 48 | 1016.7 |
| 20260504004540 | 62 | 266 | 6.0 | 12.0 | 0.00 | 0.00 | 0.00 | 47 | 1016.6 |
| 20260504003029 | 63 | 250 | 7.0 | 12.0 | 0.00 | 0.00 | 0.00 | 46 | 1016.4 |
| 20260504001535 | 64 | 229 | 6.0 | 12.0 | 0.00 | 0.00 | 0.00 | 45 | 1016.2 |
| 20260504000031 | 65 | 244 | 7.0 | 13.0 | 0.00 | 0.00 | 0.00 | 44 | 1016.1 |
| 20260503234534 | 65 | 241 | 7.0 | 13.0 | 0.00 | 0.00 | 0.00 | 44 | 1016.1 |
| 20260503233029 | 66 | 251 | 8.0 | 16.0 | 0.00 | 0.00 | 0.00 | 44 | 1016.0 |
| 20260503231528 | 66 | 227 | 9.0 | 14.0 | 0.00 | 0.00 | 0.00 | 43 | 1016.2 |
| 20260503230030 | 67 | 234 | 7.0 | 12.0 | 0.00 | 0.00 | 0.00 | 41 | 1016.2 |
| 20260503224529 | 67 | 242 | 7.0 | 15.0 | 0.00 | 0.08 | 0.00 | 41 | 1016.2 |
| 20260503223032 | 68 | 233 | 7.0 | 13.0 | 0.00 | 0.08 | 0.00 | 40 | 1016.3 |
| 20260503221535 | 67 | 214 | 5.0 | 17.0 | 0.00 | 0.08 | 0.00 | 40 | 1016.3 |
| 20260503220037 | 67 | 213 | 12.0 | 20.0 | 0.00 | 0.08 | 0.00 | 39 | 1016.4 |
| 20260503214541 | 68 | 192 | 8.0 | 15.0 | 0.00 | 0.16 | 0.00 | 40 | 1016.3 |
| 20260503213034 | 68 | 238 | 8.0 | 14.0 | 0.00 | 0.16 | 0.00 | 38 | 1016.6 |
| 20260503211530 | 68 | 194 | 5.0 | 10.0 | 0.00 | 0.16 | 0.00 | 40 | 1016.8 |
| 20260503210029 | 67 | 224 | 9.0 | 15.0 | 0.00 | 0.16 | 0.00 | 39 | 1017.0 |
| 20260503204531 | 67 | 242 | 4.0 | 12.0 | 0.00 | 0.16 | 0.00 | 43 | 1017.1 |
| 20260503203030 | 67 | 269 | 7.0 | 16.0 | 0.00 | 0.16 | 0.00 | 40 | 1017.3 |
| 20260503201532 | 66 | 313 | 10.0 | 19.0 | 0.00 | 0.16 | 0.00 | 41 | 1017.6 |
| 20260503200030 | 66 | 296 | 1.0 | 10.0 | 0.00 | 0.16 | 0.00 | 41 | 1018.0 |
| 20260503194527 | 65 | 227 | 5.0 | 14.0 | 0.00 | 0.16 | 0.00 | 43 | 1018.2 |
| 20260503193031 | 65 | 194 | 6.0 | 14.0 | 0.00 | 0.16 | 0.00 | 44 | 1018.5 |
| 20260503191530 | 65 | 197 | 4.0 | 12.0 | 0.00 | 0.16 | 0.00 | 44 | 1018.7 |
| 20260503190038 | 65 | 232 | 8.0 | 13.0 | 0.00 | 0.16 | 0.00 | 43 | 1019.1 |
| 20260503184530 | 64 | 230 | 6.0 | 14.0 | 0.00 | 0.16 | 0.00 | 45 | 1019.3 |
| 20260503183038 | 63 | 209 | 9.0 | 16.0 | 0.00 | 0.16 | 0.00 | 45 | 1019.4 |
| 20260503181546 | 63 | 294 | 6.0 | 14.0 | 0.00 | 0.16 | 0.00 | 45 | 1019.6 |
| 20260503180040 | 63 | 194 | 3.0 | 14.0 | 0.00 | 0.16 | 0.00 | 45 | 1019.6 |
| 20260503174529 | 62 | 224 | 7.0 | 12.0 | 0.00 | 0.16 | 0.00 | 46 | 1019.7 |
| 20260503173029 | 62 | 203 | 6.0 | 10.0 | 0.00 | 0.16 | 0.00 | 47 | 1019.9 |
| 20260503171528 | 61 | 276 | 1.0 | 11.0 | 0.00 | 0.16 | 0.00 | 47 | 1020.2 |